Zurück zum Katalog

CZ-3 R/B

AktivHEO
NORAD 16528·ROCKET BODY·🇨🇳 China

Gestartet Feb 1, 1986 von Xichang Satellite Launch Center

Loading…

Nächste Überflüge (nächste 24 Stunden)

TLE

AktuellSource: Space-Track

Epoche: Sep 13, 2026, 09:08 UTC

1 16528U 86010B   26256.38104332  .00000227  00000-0  35415-3 0  9994
2 16528  30.3739 215.0623 7191242 251.0181  23.8033  2.32465384291369

Verfolge CZ-3 R/B in Echtzeit mit AllMySat

Download on the App Store